RA601 UHWW-UHWW

Flight info

Callsign RA601
Flight time N/A
Altitude 2000
Route DCT
Aircraft C172/L-SFG/C

Departure

Time 2026-04-28 03:37
Airport Vladivostok International Airport (UHWW)

Arrival

Time N/A
Airport Vladivostok International Airport (UHWW)
Time Latitude Longitude Altitude Speed Heading
2026-04-28 03:28 43.39859 132.16419 64 ft 0 kts 152°
2026-04-28 03:34 43.39857 132.16421 64 ft 6 kts 150°
2026-04-28 03:35 43.39859 132.16562 60 ft 23 kts 58°
2026-04-28 03:35 43.39977 132.16855 64 ft 34 kts 63°
2026-04-28 03:35 43.40052 132.17045 62 ft 22 kts 62°
2026-04-28 03:35 43.40148 132.17061 62 ft 25 kts 333°
2026-04-28 03:36 43.40352 132.16914 62 ft 32 kts 331°
2026-04-28 03:36 43.40413 132.16732 62 ft 34 kts 241°
2026-04-28 03:36 43.40220 132.16253 68 ft 73 kts 251°
2026-04-28 03:36 43.39956 132.15636 198 ft 83 kts 244°
2026-04-28 03:37 43.39656 132.14888 323 ft 91 kts 246°
2026-04-28 03:37 43.39275 132.14125 402 ft 100 kts 225°
2026-04-28 03:37 43.38734 132.13505 530 ft 102 kts 227°
2026-04-28 03:37 43.38188 132.12862 663 ft 107 kts 227°
2026-04-28 03:38 43.37612 132.12181 789 ft 111 kts 227°
2026-04-28 03:38 43.37017 132.11470 905 ft 116 kts 228°
2026-04-28 03:38 43.36396 132.10738 1040 ft 120 kts 227°
2026-04-28 03:38 43.35747 132.09962 1177 ft 127 kts 228°
2026-04-28 03:39 43.35075 132.09165 1313 ft 130 kts 228°
2026-04-28 03:39 43.34382 132.08346 1450 ft 132 kts 227°
2026-04-28 03:39 43.33681 132.07518 1573 ft 133 kts 227°
2026-04-28 03:39 43.32981 132.06688 1708 ft 132 kts 226°
2026-04-28 03:40 43.32296 132.05877 1839 ft 132 kts 226°
2026-04-28 03:40 43.31602 132.05052 1955 ft 132 kts 227°
2026-04-28 03:40 43.30891 132.04209 1969 ft 137 kts 227°
2026-04-28 03:40 43.30166 132.03351 1972 ft 139 kts 227°
2026-04-28 03:41 43.29427 132.02478 1974 ft 140 kts 226°
2026-04-28 03:41 43.28700 132.01618 1967 ft 134 kts 226°
2026-04-28 03:41 43.28012 132.00806 1961 ft 130 kts 227°
2026-04-28 03:41 43.27334 132.00006 1995 ft 127 kts 227°
2026-04-28 03:42 43.26719 131.99150 1996 ft 124 kts 239°
2026-04-28 03:42 43.26036 131.98388 1995 ft 129 kts 214°
2026-04-28 03:42 43.25209 131.97885 1998 ft 130 kts 207°
2026-04-28 03:42 43.24371 131.97397 1999 ft 131 kts 206°
2026-04-28 03:43 43.23530 131.96910 2005 ft 131 kts 206°
2026-04-28 03:43 43.22705 131.96426 2007 ft 130 kts 206°
2026-04-28 03:43 43.21872 131.95941 2007 ft 131 kts 206°
2026-04-28 03:43 43.21032 131.95453 2011 ft 131 kts 209°
2026-04-28 03:44 43.20225 131.94877 2006 ft 131 kts 212°
2026-04-28 03:44 43.19413 131.94294 2013 ft 132 kts 213°
2026-04-28 03:44 43.18597 131.93712 2007 ft 131 kts 213°
2026-04-28 03:44 43.17794 131.93148 2007 ft 130 kts 212°
2026-04-28 03:45 43.16998 131.92577 2001 ft 128 kts 213°
2026-04-28 03:45 43.16209 131.92015 2010 ft 128 kts 212°
2026-04-28 03:45 43.15418 131.91443 2011 ft 128 kts 212°
2026-04-28 03:45 43.14625 131.90872 2013 ft 129 kts 212°
2026-04-28 03:46 43.13888 131.90307 1889 ft 116 kts 223°
2026-04-28 03:46 43.13385 131.89480 1730 ft 109 kts 244°
2026-04-28 03:46 43.12932 131.88682 1563 ft 107 kts 241°
2026-04-28 03:46 43.12496 131.87837 1463 ft 103 kts 243°
2026-04-28 03:47 43.12053 131.87113 1441 ft 104 kts 220°
2026-04-28 03:47 43.11377 131.86903 1458 ft 106 kts 174°
2026-04-28 03:47 43.10674 131.87298 1582 ft 113 kts 142°
2026-04-28 03:47 43.10015 131.87975 1676 ft 128 kts 156°
2026-04-28 03:48 43.09194 131.87799 1759 ft 130 kts 221°
2026-04-28 03:48 43.08491 131.86911 1512 ft 144 kts 242°
2026-04-28 03:48 43.07994 131.85755 1514 ft 140 kts 224°
2026-04-28 03:48 43.07198 131.85979 1636 ft 132 kts 118°
2026-04-28 03:49 43.06718 131.87084 1508 ft 140 kts 117°
2026-04-28 03:49 43.06082 131.88134 1382 ft 146 kts 137°
2026-04-28 03:49 43.05190 131.88767 1365 ft 146 kts 166°
2026-04-28 03:49 43.04202 131.88915 1350 ft 141 kts 175°
2026-04-28 03:50 43.03258 131.89240 1331 ft 141 kts 149°
2026-04-28 03:50 43.02448 131.90069 1155 ft 148 kts 143°
2026-04-28 03:50 43.01518 131.90574 1129 ft 145 kts 169°
2026-04-28 03:50 43.00552 131.90595 1247 ft 135 kts 187°
2026-04-28 03:51 42.99631 131.90813 1233 ft 143 kts 168°
2026-04-28 03:51 42.98630 131.90696 1116 ft 145 kts 203°
2026-04-28 03:51 42.97727 131.90116 1096 ft 141 kts 211°
2026-04-28 03:51 42.96900 131.89452 1119 ft 139 kts 218°
2026-04-28 03:52 42.96070 131.88819 1147 ft 137 kts 209°
2026-04-28 03:52 42.95198 131.88250 1130 ft 136 kts 216°
2026-04-28 03:52 42.94472 131.87432 1066 ft 139 kts 230°